Location: Chaumontel
(49.1247°N, 2.4324°E)
Time: 10:23:11
(UTC+00:00)

SL-4 R/B - Pass Details

Date: 03 February 2023
Orbit: 423 x 638 km, 51.6° (Epoch: 23 March)

Event Time Altitude Azimuth Distance (km) Brightness Sun altitude
Rises 18:31:33 0° 282° (WNW) 2,419 6.7 -16.8°
Reaches altitude 10° 18:33:38 10° 286° (WNW) 1,571 5.4 -17.1°
Maximum altitude 18:37:07 59° 7° (N) 542 1.8 -17.7°
Enters shadow 18:37:55 46° 58° (ENE) 643 1.9 -17.8°
